Location: Colorado Springs
(38.8340°N, 104.8210°W)
Time: 21:25:39
(UTC-06:00)

Tiangong 1 - Pass Details

Date: 10 October 2017
Orbit: 293 x 320 km, 42.8° (Epoch: 18 October)

Event Time Altitude Azimuth Distance (km) Brightness Sun altitude
Rises 18:50:03 0° 275° (W) 2,043 7.0 -5.2°
Reaches altitude 10° 18:52:08 10° 285° (WNW) 1,209 5.0 -5.6°
Maximum altitude 18:54:39 35° 354° (N) 531 1.8 -6.1°
Drops below altitude 10° 18:57:09 10° 63° (ENE) 1,196 3.0 -6.5°
Enters shadow 18:57:32 - 66° (ENE) 1,341 3.2 -6.6°
